Augusta, ME

2:43 PM EST on February 26, 2017 (GMT -0500)
Augusta State

Weather History for KAUG - November, 2012

Change the Weather History Date:

Tuesday, November 20, 2012

  Actual Average Record
Temperature  
Mean Temperature 35 °F 36 °F  
Max Temperature 46 °F 43 °F 72 °F (1953)
Min Temperature 24 °F 29 °F 11 °F (1986)
Degree Days  
Heating Degree Days 30 29  
Month to date heating degree days 505  
Since 1 July heating degree days 1240  
Cooling Degree Days 0 0  
Month to date cooling degree days 0  
Year to date cooling degree days 388  
Moisture  
Dew Point 25 °F    
Average Humidity 72    
Maximum Humidity 96    
Minimum Humidity 43    
Precipitation  
Precipitation 0.00 in 0.15 in 1.36 in (2003)
Month to date precipitation 2.99  
Year to date precipitation 37.27  
Sea Level Pressure  
Sea Level Pressure 30.21 in    
Wind  
Wind Speed 3 mph (North)    
Max Wind Speed 7 mph    
Max Gust Speed -    
Visibility 10 miles    
Events      
T = Trace of Precipitation, MM = Missing Value Source: NWS Daily Summary

Daily Weather History Graph

Daily Weather History Graph

Search for Another Location

Airport or City:

Trip Planner

Search our weather history database for the weather conditions in past years. The results will help you decide how hot, cold, wet, or windy it might be!

Date:

Astronomy

Nov. 20, 2012 Rise Set
Actual Time 6:42 AM EST 4:07 PM EST
Civil Twilight 6:10 AM EST 4:39 PM EST
Nautical Twilight 5:34 AM EST 5:14 PM EST
Astronomical Twilight 5:00 AM EST 5:49 PM EST
Moon 12:07 PM EST (11/20) 11:44 PM EST (11/20)
Length of Visible Light 10h 28m
Length of Day
9h 25m
Waxing Crescent, 51% of the Moon is Illuminated
Nov 20
Waxing Crescent
Nov 28
Full
Dec 6
Last Quarter
Dec 13
New
Dec 20
First Quarter

Hourly Weather History & Observations

Time (EST) Temp. Windchill Dew Point Humidity Pressure Visibility Wind Dir Wind Speed Gust Speed Precip Events Conditions
12:53 AM 27.0 °F - 25.0 °F 92% 30.27 in 10.0 mi Calm Calm - N/A   Clear
1:53 AM 26.1 °F 18.4 °F 25.0 °F 96% 30.26 in 9.0 mi NNW 6.9 mph - N/A   Clear
2:53 AM 27.0 °F - 25.0 °F 92% 30.25 in 10.0 mi Calm Calm - N/A   Clear
3:53 AM 26.1 °F - 24.1 °F 92% 30.24 in 7.0 mi Calm Calm - N/A   Clear
4:53 AM 25.0 °F - 23.0 °F 92% 30.25 in 10.0 mi Calm Calm - N/A   Clear
5:53 AM 24.1 °F 17.0 °F 21.9 °F 91% 30.23 in 9.0 mi NNW 5.8 mph - N/A   Clear
6:53 AM 24.1 °F 18.2 °F 21.9 °F 91% 30.24 in 10.0 mi NNW 4.6 mph - N/A   Clear
7:53 AM 27.0 °F 21.6 °F 24.1 °F 89% 30.24 in 10.0 mi NNW 4.6 mph - N/A   Clear
8:53 AM 30.0 °F 25.2 °F 25.0 °F 82% 30.24 in 10.0 mi NNW 4.6 mph - N/A   Clear
9:53 AM 36.0 °F 32.1 °F 28.0 °F 73% 30.23 in 10.0 mi NNW 4.6 mph - N/A   Clear
10:53 AM 42.1 °F 39.2 °F 27.0 °F 55% 30.20 in 10.0 mi ENE 4.6 mph - N/A   Clear
11:53 AM 44.1 °F - 28.0 °F 53% 30.18 in 10.0 mi Calm Calm - N/A   Clear
12:53 PM 45.0 °F 43.5 °F 26.1 °F 48% 30.18 in 10.0 mi NE 3.5 mph - N/A   Clear
1:53 PM 46.0 °F 43.9 °F 26.1 °F 46% 30.17 in 10.0 mi Variable 4.6 mph - N/A   Clear
2:53 PM 44.1 °F 40.8 °F 23.0 °F 43% 30.17 in 10.0 mi NE 5.8 mph - N/A   Clear
3:53 PM 43.0 °F - 24.1 °F 47% 30.17 in 10.0 mi Calm Calm - N/A   Clear
4:53 PM 43.0 °F - 24.1 °F 47% 30.18 in 10.0 mi Calm Calm - N/A   Clear
5:53 PM 41.0 °F 39.0 °F 24.1 °F 51% 30.19 in 10.0 mi NNW 3.5 mph - N/A   Clear
6:53 PM 37.0 °F 33.3 °F 25.0 °F 62% 30.19 in 10.0 mi North 4.6 mph - N/A   Clear
7:53 PM 34.0 °F 28.8 °F 25.0 °F 70% 30.20 in 10.0 mi North 5.8 mph - N/A   Clear
8:53 PM 33.1 °F 27.7 °F 26.1 °F 75% 30.20 in 10.0 mi North 5.8 mph - N/A   Clear
9:53 PM 33.1 °F 28.7 °F 27.0 °F 78% 30.21 in 10.0 mi NNW 4.6 mph - N/A   Clear
10:53 PM 33.1 °F 28.7 °F 28.0 °F 82% 30.20 in 10.0 mi NNW 4.6 mph - N/A   Clear
11:53 PM 33.1 °F 27.7 °F 27.0 °F 78% 30.21 in 10.0 mi NNW 5.8 mph - N/A   Clear